Location: High Meadows Obseravatory
(40.7417°N, 111.5713°W)
Time: 02:47:19
(UTC-07:00)

ISS - Visible Passes

Search period start: 10 December 2022 00:00
Search period end: 20 December 2022 00:00
Orbit: 414 x 420 km, 51.6° (Epoch: 09 December)

Date Brightness Start Highest point End Pass type
(mag) Time Alt. Az. Time Alt. Az. Time Alt. Az.
14 Dec -0.3 07:08:53 10° SSE 07:10:34 13° SE 07:12:15 10° E visible
16 Dec -2.0 07:07:11 10° SSW 07:10:18 37° SE 07:13:25 10° ENE visible
17 Dec -1.1 06:19:25 10° S 06:22:03 21° SE 06:24:41 10° E visible
18 Dec -0.6 05:32:22 10° SSE 05:33:49 12° SE 05:35:17 10° ESE visible
18 Dec -3.8 07:06:49 10° WSW 07:10:09 74° NW 07:13:30 10° NE visible
19 Dec -3.4 06:18:42 12° SW 06:21:44 63° SE 06:25:03 10° ENE visible
